This demonstration page uses our WeatherBlox Daily Observations layout. Learn more.

Left ArrowRight Arrow

Hourly Observations for May 10, 2019

Temp ( °F °C ) Dew Point ( °F °C ) Humidity (%) Winds ( mph kmh ) Pressure ( in mb ) Visibility ( mi km ) Precip ( " mm )
12:52 am 00:52 Cloudy 47 8.3 40 4.4 77 77 NNW 6 9 30.11 1020 10 16 0.00 0.00
1:13 am 01:13 Cloudy 46 7.8 40 4.4 79 79 NNW 5 7 30.14 1021 10 16 0.00 0.00
1:52 am 01:52 Cloudy 46 7.8 41 5 83 83 NNW 6 9 30.11 1020 10 16 0.00 0.00
2:19 am 02:19 Cloudy 46 7.8 41 5 83 83 NNW 8 13 30.11 1020 10 16 0.00 0.00
2:52 am 02:52 Cloudy 46 7.8 40 4.4 79 79 NNW 9 15 30.09 1019 10 16 0.00 0.00
3:52 am 03:52 Cloudy 46 7.8 40 4.4 79 79 NNW 9 15 30.11 1020 10 16 0.00 0.00
4:31 am 04:31 Partly Cloudy 44 6.7 40 4.4 85 85 NNW 7 11 30.13 1020 10 16 0.00 0.00
4:52 am 04:52 Mostly Clear 43 6.1 40 4.4 89 89 N 7 11 30.11 1020 10 16 0.00 0.00
5:52 am 05:52 Clear 42 5.6 39 3.9 89 89 N 6 9 30.13 1020 10 16 0.00 0.00
6:18 am 06:18 Mostly Cloudy 44 6.7 40 4.4 85 85 NNW 6 9 30.17 1022 10 16 0.00 0.00
6:52 am 06:52 Cloudy 45 7.2 41 5 86 86 N 3 6 30.15 1021 10 16 0.00 0.00
7:52 am 07:52 Cloudy 46 7.8 42 5.6 86 86 NNE 6 9 30.17 1022 10 16 0.00 0.00
8:52 am 08:52 Cloudy 48 8.9 39 3.9 71 71 NE 10 17 30.17 1022 10 16 0.00 0.00
9:52 am 09:52 Mostly Cloudy 50 10 38 3.3 63 63 NNE 10 17 30.17 1022 10 16 0.00 0.00
10:52 am 10:52 Mostly Cloudy 52 11.1 39 3.9 61 61 NNE 8 13 30.16 1021 10 16 0.00 0.00
11:26 am 11:26 Partly Cloudy 54 12.2 40 4.4 59 59 NE 9 15 30.15 1021 10 16 0.00 0.00
11:39 am 11:39 Mostly Cloudy 54 12.2 40 4.4 59 59 NNE 9 15 30.16 1021 10 16 0.00 0.00
11:52 am 11:52 Mostly Cloudy 56 13.3 42 5.6 60 60 NE 12 19 30.15 1021 10 16 0.00 0.00
12:52 pm 12:52 Cloudy 55 12.8 42 5.6 62 62 N 9 15 30.16 1021 10 16 0.00 0.00
1:27 pm 13:27 Cloudy 55 12.8 41 5 59 59 NNE 9 15 30.16 1021 10 16 0.00 0.00
1:52 pm 13:52 Cloudy 57 13.9 42 5.6 58 58 NE 10 17 30.14 1021 10 16 0.00 0.00
2:52 pm 14:52 Mostly Cloudy 59 15 44 6.7 58 58 NNE 14 22 30.13 1020 10 16 0.00 0.00
3:52 pm 15:52 Partly Cloudy 59 15 43 6.1 56 56 NE 13 20 30.10 1019 10 16 0.00 0.00
4:52 pm 16:52 Mostly Sunny 61 16.1 44 6.7 54 54 ENE 8 13 30.07 1018 10 16 0.00 0.00
5:52 pm 17:52 Mostly Sunny 61 16.1 44 6.7 54 54 ENE 8 13 30.08 1019 10 16 0.00 0.00
6:52 pm 18:52 Sunny 60 15.6 43 6.1 53 53 NE 9 15 30.09 1019 10 16 0.00 0.00
7:52 pm 19:52 Sunny 57 13.9 43 6.1 60 60 NNE 7 11 30.10 1019 10 16 0.00 0.00
8:52 pm 20:52 Clear 54 12.2 43 6.1 67 67 ENE 6 9 30.09 1019 10 16 0.00 0.00
10:52 pm 22:52 Clear 52 11.1 43 6.1 72 72 ENE 10 17 30.06 1018 10 16 0.00 0.00
11:52 pm 23:52 Clear 51 10.6 43 6.1 74 74 ENE 6 9 30.05 1018 10 16 0.00 0.00

Powered by AerisWeather